| time (UTC) | temp C | wind direction | speed KPH | gust KPH | rain 1hr cm | rain 24hr cm | rain mn cm | humidity % | barometer mb |
| 20260504050021 | 7 | 169 | 0.0 | 3.2 | 0.00 | 0.00 | 0.00 | 66 | 1010.5 |
| 20260504044525 | 7 | 169 | 1.6 | 4.8 | 0.00 | 0.00 | 0.00 | 68 | 1010.7 |
| 20260504043018 | 7 | 161 | 1.6 | 4.8 | 0.00 | 0.00 | 0.00 | 70 | 1010.9 |
| 20260504041516 | 7 | 340 | 0.0 | 1.6 | 0.00 | 0.00 | 0.00 | 69 | 1011.3 |
| 20260504040017 | 7 | 340 | 0.0 | 4.8 | 0.00 | 0.00 | 0.00 | 69 | 1011.3 |
| 20260504034513 | 7 | 340 | 0.0 | 3.2 | 0.00 | 0.00 | 0.00 | 69 | 1011.1 |
| 20260504033012 | 7 | 340 | 0.0 | 0.0 | 0.00 | 0.00 | 0.00 | 68 | 1011.0 |
| 20260504031514 | 7 | 340 | 1.6 | 3.2 | 0.00 | 0.00 | 0.00 | 69 | 1010.7 |
| 20260504030013 | 6 | 340 | 0.0 | 0.0 | 0.00 | 0.00 | 0.00 | 67 | 1010.7 |
| 20260504024511 | 6 | 340 | 0.0 | 4.8 | 0.00 | 0.00 | 0.00 | 67 | 1010.7 |
| 20260504023011 | 7 | 340 | 1.6 | 3.2 | 0.00 | 0.00 | 0.00 | 63 | 1010.6 |
| 20260504021510 | 7 | 340 | 0.0 | 3.2 | 0.00 | 0.00 | 0.00 | 61 | 1010.6 |
| 20260504020017 | 7 | 340 | 0.0 | 3.2 | 0.00 | 0.00 | 0.00 | 58 | 1010.6 |
| 20260504014510 | 8 | 340 | 0.0 | 1.6 | 0.00 | 0.00 | 0.00 | 55 | 1010.5 |
| 20260504013011 | 9 | 340 | 0.0 | 0.0 | 0.00 | 0.00 | 0.00 | 53 | 1010.4 |
| 20260504011511 | 10 | 340 | 0.0 | 1.6 | 0.00 | 0.00 | 0.00 | 50 | 1010.4 |
| 20260504010009 | 10 | 340 | 0.0 | 3.2 | 0.00 | 0.00 | 0.00 | 47 | 1010.2 |
| 20260504004514 | 10 | 315 | 3.2 | 14.5 | 0.00 | 0.00 | 0.00 | 46 | 1010.2 |
| 20260504003006 | 11 | 204 | 4.8 | 11.3 | 0.00 | 0.00 | 0.00 | 44 | 1010.1 |
| 20260504001507 | 11 | 248 | 9.7 | 14.5 | 0.00 | 0.00 | 0.00 | 43 | 1009.9 |
| 20260504000006 | 11 | 243 | 6.4 | 14.5 | 0.00 | 0.00 | 0.00 | 42 | 1009.8 |
| 20260503234506 | 11 | 187 | 8.0 | 17.7 | 0.00 | 0.00 | 0.00 | 39 | 1009.7 |
| 20260503233005 | 12 | 265 | 11.3 | 29.0 | 0.00 | 0.00 | 0.00 | 38 | 1009.5 |
| 20260503231506 | 12 | 188 | 11.3 | 20.9 | 0.00 | 0.00 | 0.00 | 37 | 1009.3 |
| 20260503230004 | 12 | 267 | 11.3 | 27.4 | 0.00 | 0.00 | 0.00 | 35 | 1009.3 |
| 20260503224502 | 12 | 281 | 9.7 | 29.0 | 0.00 | 0.00 | 0.00 | 34 | 1009.0 |
| 20260503223002 | 13 | 259 | 11.3 | 29.0 | 0.00 | 0.00 | 0.00 | 33 | 1008.9 |
| 20260503221502 | 13 | 254 | 12.9 | 29.0 | 0.00 | 0.00 | 0.00 | 32 | 1008.8 |
| 20260503220005 | 13 | 265 | 9.7 | 27.4 | 0.00 | 0.00 | 0.00 | 32 | 1008.9 |
| 20260503214602 | 13 | 216 | 9.7 | 22.5 | 0.00 | 0.00 | 0.00 | 31 | 1008.8 |
| 20260503213112 | 13 | 184 | 14.5 | 30.6 | 0.00 | 0.00 | 0.00 | 31 | 1008.9 |
| 20260503211559 | 13 | 178 | 19.3 | 38.6 | 0.00 | 0.00 | 0.00 | 30 | 1008.9 |
| 20260503210104 | 13 | 247 | 9.7 | 22.5 | 0.00 | 0.00 | 0.00 | 31 | 1008.9 |
| 20260503204558 | 12 | 323 | 16.1 | 27.4 | 0.00 | 0.00 | 0.00 | 31 | 1009.0 |
| 20260503203102 | 12 | 174 | 16.1 | 32.2 | 0.00 | 0.00 | 0.00 | 33 | 1009.2 |
| 20260503201555 | 12 | 313 | 12.9 | 30.6 | 0.00 | 0.00 | 0.00 | 34 | 1009.2 |
| 20260503200056 | 12 | 341 | 11.3 | 37.0 | 0.00 | 0.00 | 0.00 | 35 | 1009.4 |
| 20260503194549 | 12 | 323 | 6.4 | 20.9 | 0.00 | 0.00 | 0.00 | 37 | 1009.5 |
| 20260503193052 | 11 | 311 | 11.3 | 25.7 | 0.00 | 0.00 | 0.00 | 38 | 1009.8 |
| 20260503191548 | 11 | 315 | 9.7 | 17.7 | 0.00 | 0.00 | 0.00 | 38 | 1010.0 |
| 20260503190047 | 11 | 355 | 12.9 | 29.0 | 0.00 | 0.00 | 0.00 | 39 | 1010.1 |
| 20260503184555 | 11 | 236 | 8.0 | 17.7 | 0.00 | 0.00 | 0.00 | 41 | 1010.4 |
| 20260503183054 | 11 | 340 | 16.1 | 29.0 | 0.00 | 0.00 | 0.00 | 40 | 1010.3 |
| 20260503181541 | 10 | 163 | 16.1 | 27.4 | 0.00 | 0.00 | 0.00 | 42 | 1010.3 |
| 20260503180038 | 10 | 254 | 9.7 | 24.1 | 0.00 | 0.00 | 0.00 | 45 | 1010.5 |
| 20260503174535 | 10 | 252 | 8.0 | 37.0 | 0.00 | 0.00 | 0.00 | 45 | 1010.7 |
| 20260503173034 | 10 | 319 | 11.3 | 27.4 | 0.00 | 0.00 | 0.00 | 47 | 1010.9 |
| 20260503171531 | 8 | 309 | 9.7 | 27.4 | 0.00 | 0.00 | 0.00 | 48 | 1011.0 |
| 20260503081630 | 3 | 355 | 3.2 | 14.5 | 0.00 | 0.00 | 0.00 | 75 | 1011.3 |
| 20260503080112 | 3 | 16 | 6.4 | 12.9 | 0.00 | 0.00 | 0.00 | 75 | 1011.5 |
| 20260503071553 | 3 | 348 | 9.7 | 17.7 | 0.00 | 0.00 | 0.00 | 74 | 1011.7 |